Weather Roundup
Issued by NWS Chicago, IL

Home | Current Version | Previous Version | Graphics & Text | Print | Product List | Glossary On
Versions: 1 2 3 4 5 6 7 8 9 10 11 12 13 14 15 16 17 18 19 20 21 22 23 24 25 26 27 28 29 30 31 32 33 34 35 36 37 38 39 40 41 42 43 44 45 46 47 48 49 50
000
NZUS59 KLOT 240112
HRRLOT

CHICAGO AREA WEATHER ROUNDUP
NATIONAL WEATHER SERVICE CHICAGO/ROMEOVILLE IL
700 PM CST MON JAN 23 2017

NOTE: "FAIR" INDICATES FEW OR NO CLOUDS BELOW 12,000 FEET WITH NO
SIGNIFICANT WEATHER AND/OR OBSTRUCTIONS TO VISIBILITY.

* THESE STATIONS ARE NOT UNDER NWS QUALITY CONTROL. THEY ALSO MAY NOT
  REPORT WEATHER SUCH AS PRECIPITATION OR FOG.

ILZ005-006-012>014-019>023-240200-
NORTHEAST ILLINOIS

CITY           SKY/WX    TMP DP  RH WIND       PRES   REMARKS
OHARE          CLOUDY    40  35  83 NW10      29.78R
MIDWAY         CLOUDY    42  34  73 NW9       29.78R
AURORA         CLOUDY    39  36  89 NW3       29.80R
LANSING*       CLOUDY    41  36  84 N5        29.77S
JOLIET*        CLOUDY    42  36  81 NW3       29.81R
WAUKEGAN       CLOUDY    38  35  89 NW6       29.78R
DUPAGE AIRPORT CLOUDY    39  33  79 N6        29.79R
WHEELING       PTCLDY    38  33  82 NW7       29.79R
KANKAKEE*      CLOUDY    40  36  83 CALM      29.80R
MORRIS*        CLOUDY    39  36  91 CALM      29.79R
LEWIS AIRPORT* CLOUDY    39  37  91 NW6       29.80R
NORTHERLY ISL    N/A     39  35  86 N5          N/A
$$

WIZ051-052-058>065-066-070>072-240200-
SOUTHEAST WISCONSIN

CITY           SKY/WX    TMP DP  RH WIND       PRES   REMARKS
MILWAUKEE      CLOUDY    40  35  83 NW9       29.79R
KENOSHA*       CLOUDY    39  35  86 NW9       29.79R
RACINE*        CLOUDY    39  34  82 NW8       29.79S
WAUKESHA       CLOUDY    36  34  93 NW9       29.80R FOG
WEST BEND      CLOUDY    36  36 100 CALM      29.79R
$$

INZ001>003-010>013-019-020-240200-
NORTHWEST INDIANA

CITY           SKY/WX    TMP DP  RH WIND       PRES   REMARKS
GARY*          CLOUDY    41  34  75 N8        29.78R
MICHIGAN CITY* NOT AVBL
RENSSELAER*    NOT AVBL
VALPARAISO     CLOUDY    39  38  96 N8        29.76R
$$

LMZ740>746-240200-
SOUTHERN LAKE MICHIGAN

STATION/POSITION TIME  SKY/WX   TEMP WIND        PRES    VSBY
                                AIR  DIR/SP/G
                 (UTC)          (F)  (DEG/KT/KT) (MB)    (MI)
HARRISON CRIB    0040            39  350/ 12/ 13   N/A
BURNHAM HARBOR   0100            38  320/  5/ 10   N/A
CALUMET HARBOR   0030            37  340/  6/  8 1007.8R
BURNS HARBOR     0040            36   10/  6/  8 1009.1R
MICHIGAN CITY    0040            36  330/ 10/ 10   N/A
$$

ABBREVIATIONS USED IN REMARKS
   TC - TEMPERATURE IN CELSIUS
  WCI - WIND CHILL INDEX
   HX - HEAT INDEX
  VSB - VISIBILITY
$$



USA.gov is the U.S. government's official web portal to all federal, state and local government web resources and services.